Wind_Speed
15 15 15 15 15 14 14 14 13 13 13 12 12 11 11 11 11 11 10 10 10 9 9 9 8 8 8 7 7 6 5 5 5 5 4 4 4 4 3 3 3 3 3
16 16 16 16 16 15 15 15 15 15 14 13 13 13 12 12 13 13 12 12 11 10 10 10 10 9 9 8 8 7 6 6 6 6 5 5 5 4 4 4 3 4 4
17 17 17 17 17 16 16 16 16 16 16 15 14 14 14 13 14 14 14 13 13 12 11 11 11 11 10 10 9 8 7 7 6 6 6 6 5 5 5 5 4 4 5
19 19 18 18 18 18 18 17 17 17 17 16 16 16 15 15 15 15 15 14 14 13 13 13 12 12 11 11 10 9 8 8 7 7 7 7 7 7 6 6 6 6 6
20 20 20 19 19 19 19 19 19 18 17 17 17 17 16 16 16 16 16 16 15 14 14 14 14 13 13 12 12 11 10 9 9 8 8 8 8 8 8 7 7 7 7
22 21 21 21 20 20 20 19 19 19 19 18 18 18 17 16 16 16 16 16 16 16 16 15 15 14 14 14 14 13 13 12 11 10 10 9 9 8 8 8 9 8 8
23 23 22 22 21 21 20 20 20 20 20 20 20 19 18 18 18 17 17 17 17 17 17 17 16 16 15 15 15 15 15 14 13 13 12 11 11 10 10 9 9 9 9
25 24 23 23 22 22 21 21 21 21 20 20 21 21 20 20 19 19 19 18 18 18 18 18 18 17 17 17 17 16 16 16 15 15 14 13 13 12 12 11 11 11 10
27 25 25 24 24 23 23 23 22 22 21 21 21 21 22 21 21 20 20 20 19 19 19 19 18 18 18 18 18 18 17 18 17 17 16 15 15 14 14 14 13 13 12
29 28 27 26 25 24 24 24 24 23 23 22 22 22 22 22 22 22 22 22 21 20 20 20 19 19 19 19 19 19 18 18 18 17 17 16 16 16 16 15 14 14 14
31 30 29 28 27 27 26 25 25 24 24 24 24 24 23 23 23 23 23 23 23 22 22 21 21 20 21 21 20 20 19 19 19 19 18 18 18 18 17 17 16 16 16
32 32 31 30 30 29 28 27 26 26 26 26 26 25 25 25 25 25 25 24 24 24 24 23 22 22 22 22 22 21 21 21 21 21 21 20 20 20 19 19 18 18 18
34 33 33 32 31 30 30 29 28 28 27 27 27 27 27 26 26 26 26 25 25 26 26 25 25 24 24 24 24 23 23 23 23 23 23 22 22 22 21 21 21 21 20
36 35 34 34 33 32 31 31 31 30 29 28 28 28 28 28 27 27 27 27 27 27 27 27 27 26 26 26 26 26 25 26 25 25 25 24 24 24 24 24 23 23 23
37 36 36 36 35 35 34 33 33 32 31 30 30 29 30 29 29 29 29 29 29 29 29 29 29 28 28 28 28 27 27 28 27 27 27 27 26 26 26 26 26 25 25
38 38 38 37 37 37 36 35 34 34 34 33 31 31 30 30 30 30 30 30 30 30 30 30 30 30 30 30 29 29 28 29 29 29 28 28 29 28 28 28 27 27 27
40 40 39 38 38 38 38 38 37 36 35 34 34 33 32 32 32 31 31 31 31 31 31 30 30 31 31 31 31 30 30 30 30 30 30 30 30 30 30 30 29 29 29
40 40 40 40 39 39 39 39 38 38 37 36 35 34 33 33 33 32 32 31 32 32 32 31 31 31 32 32 32 32 32 32 32 32 32 32 32 32 32 32 31 32 31
41 41 41 40 40 40 40 40 39 38 38 38 37 36 35 34 34 34 33 33 33 33 33 33 33 33 33 33 33 33 33 33 33 34 34 34 33 33 33 33 33 33 33
41 41 41 41 41 41 40 40 39 39 39 38 38 37 36 35 35 35 35 35 34 35 34 34 34 34 34 34 35 35 35 34 34 35 35 35 35 34 34 34 34 35 35
42 42 41 41 41 41 41 41 41 40 40 39 39 38 37 36 36 35 35 36 35 35 35 35 35 35 35 35 35 35 35 36 36 36 36 36 35 35 35 35 35 36 36
42 42 42 42 42 42 41 42 42 41 41 40 40 39 38 38 37 36 36 36 36 36 36 36 36 36 36 36 35 36 35 36 36 37 37 38 37 37 36 36 36 36 36
42 42 42 42 43 42 42 42 43 43 42 42 41 40 40 39 39 38 38 38 38 37 37 36 36 36 36 36 37 37 36 36 37 37 38 38 38 39 39 38 38 39 39
43 43 42 42 43 43 43 43 43 43 43 43 43 42 41 41 41 40 40 39 39 39 37 37 36 36 37 37 37 37 37 36 36 37 37 38 38 39 40 40 40 40 40
44 44 43 43 44 43 43 43 43 43 44 44 44 43 43 42 42 42 41 41 40 40 39 38 38 37 37 37 37 37 37 37 37 37 37 38 39 39 40 41 41 41 42
44 44 44 44 44 44 44 43 43 43 44 45 44 44 43 44 44 43 42 42 41 41 40 40 39 38 38 38 38 38 37 36 37 37 38 38 39 40 41 41 41 42 42
Wind_Direction
235 235 235 235 234 232 232 234 236 237 238 239 239 239 239 239 237 237 237 237 239 239 238 237 235 233 231 234 238 242 246 250 253 256 260 262 262 268 276 287 297 306 310
238 237 237 236 235 234 235 236 238 239 240 240 241 241 241 241 240 239 239 240 242 243 243 243 240 238 238 239 242 246 249 251 252 255 259 261 263 266 270 276 283 292 298
239 239 239 237 236 236 237 238 239 240 241 242 242 244 244 244 243 241 241 243 243 244 246 247 245 243 242 242 245 248 250 253 255 257 259 262 265 266 266 270 276 286 294
239 240 240 239 238 238 238 238 238 240 241 242 243 244 244 244 244 244 244 245 245 246 247 248 248 246 246 246 246 248 251 254 258 261 262 263 265 266 265 267 271 280 287
240 240 241 240 239 239 239 239 238 239 241 242 242 244 243 243 245 246 247 247 247 249 250 250 250 249 248 250 250 250 251 254 257 259 261 264 266 266 265 265 268 274 279
239 240 240 240 239 240 240 240 240 240 241 241 242 244 244 243 244 246 247 248 248 249 250 251 251 251 251 251 252 252 253 255 257 257 258 261 264 265 266 266 267 270 274
239 239 240 240 240 240 241 241 241 241 241 241 242 244 245 244 244 245 246 248 248 249 250 251 251 252 252 251 251 251 251 253 255 256 256 259 261 262 264 266 268 269 272
240 240 240 241 240 240 241 241 242 242 242 243 243 244 245 244 245 246 246 247 248 249 250 251 252 253 252 251 252 252 251 252 254 256 257 257 258 260 262 264 267 268 271
240 240 240 240 240 240 241 242 242 243 244 244 245 245 245 246 246 247 247 247 248 249 250 251 253 254 253 253 253 253 253 253 254 256 257 257 257 259 262 263 266 268 270
239 241 241 241 241 241 241 242 243 244 245 245 245 246 247 248 248 250 249 249 249 249 250 251 252 254 254 254 254 254 253 254 255 256 257 258 259 260 262 263 265 268 270
240 241 242 241 241 241 242 242 243 244 244 245 246 247 248 249 249 251 251 250 250 250 251 252 252 254 254 255 256 255 254 254 255 256 256 258 260 262 263 263 265 267 269
240 241 242 242 241 241 242 242 242 243 245 246 247 248 249 250 250 251 251 252 250 250 251 252 253 254 254 255 256 257 257 256 256 256 257 258 260 262 263 264 265 267 269
239 240 241 242 242 242 243 243 243 244 246 247 248 249 250 251 251 250 251 251 251 251 251 253 253 254 255 256 256 257 258 258 257 258 258 259 260 262 263 265 266 267 269
240 240 241 242 242 243 243 244 244 244 246 248 249 250 250 251 251 250 251 251 252 252 252 254 254 255 256 257 257 258 258 258 258 258 258 259 260 262 263 264 265 267 269
241 241 241 242 243 243 243 244 245 246 247 248 250 251 251 251 250 250 251 252 252 252 253 255 255 255 256 256 257 257 258 258 257 257 258 258 260 262 264 265 266 268 269
241 241 242 242 242 243 243 244 245 246 247 248 249 250 251 251 251 251 251 252 253 253 254 255 256 256 256 256 257 257 257 257 257 258 259 259 260 261 263 265 267 268 268
242 242 242 242 242 243 243 245 245 246 247 248 249 250 251 252 251 252 252 252 253 253 254 255 256 256 257 256 257 258 256 256 258 258 259 260 261 261 262 264 266 267 268
242 242 242 242 243 243 243 244 245 246 247 248 250 250 251 251 251 251 252 253 253 254 255 256 257 257 258 258 259 259 258 257 257 259 260 261 262 262 263 264 265 266 267
241 241 242 242 243 243 243 243 245 246 247 248 250 251 251 251 252 252 252 253 254 255 257 258 258 258 259 260 260 260 259 258 258 259 260 261 261 262 264 264 264 265 266
241 241 242 242 243 243 243 243 244 245 247 248 249 250 250 251 252 253 253 254 255 255 257 258 257 258 260 261 261 260 260 259 259 260 260 261 262 262 263 264 264 266 267
241 241 242 242 243 243 244 243 243 245 246 247 248 249 250 251 252 253 254 255 255 256 257 257 257 258 259 261 261 261 261 260 260 260 260 261 262 262 263 264 265 265 267
240 241 242 242 243 243 244 244 243 244 245 247 248 249 250 250 252 253 254 254 254 256 257 257 258 258 259 260 261 261 261 261 261 261 261 261 262 262 263 263 264 265 267
241 241 241 243 243 244 244 244 244 244 245 246 247 248 248 250 251 253 254 255 254 254 256 257 259 258 259 259 260 261 262 262 262 262 263 263 263 263 263 264 265 266 267
241 241 241 242 243 244 244 245 245 245 245 245 246 247 248 250 251 252 253 254 254 255 255 257 259 259 258 258 259 261 262 264 263 263 264 264 264 264 264 265 266 267 268
240 241 241 242 243 244 245 245 246 245 245 245 246 247 248 249 251 251 252 253 253 254 255 257 257 259 258 258 260 261 262 264 264 264 264 264 265 265 265 266 267 268 270
241 241 242 243 244 245 245 245 246 246 245 246 247 247 248 249 250 251 252 252 252 253 254 255 257 259 259 259 259 260 262 263 264 265 265 265 265 266 266 267 268 269 270
Height
5850 5851 5852 5853 5854 5855 5856 5857 5858 5859 5860 5862 5863 5864 5865 5866 5867 5867 5868 5869 5870 5870 5871 5871 5872 5872 5873 5873 5873 5873 5873 5873 5873 5873 5873 5873 5872 5872 5872 5872 5871 5871 5871
5848 5848 5849 5850 5852 5853 5854 5855 5856 5857 5859 5860 5861 5862 5863 5864 5865 5866 5867 5868 5868 5869 5870 5870 5871 5871 5872 5872 5872 5872 5872 5872 5872 5872 5872 5872 5872 5872 5871 5871 5871 5871 5870
5845 5846 5847 5848 5849 5850 5852 5853 5854 5855 5856 5858 5859 5860 5861 5862 5863 5864 5865 5866 5867 5868 5868 5869 5869 5870 5870 5871 5871 5871 5871 5871 5871 5871 5871 5871 5871 5871 5871 5870 5870 5870 5870
5841 5843 5844 5845 5846 5847 5849 5850 5852 5853 5854 5855 5857 5858 5859 5860 5861 5862 5863 5864 5865 5866 5867 5867 5868 5868 5869 5869 5870 5870 5870 5870 5870 5870 5870 5870 5870 5870 5869 5869 5869 5869 5869
5838 5839 5840 5842 5843 5844 5846 5847 5849 5850 5851 5853 5854 5855 5856 5858 5859 5860 5861 5862 5863 5864 5865 5865 5866 5867 5867 5868 5868 5868 5869 5869 5869 5869 5869 5869 5869 5868 5868 5868 5868 5868 5867
5834 5835 5837 5838 5839 5841 5843 5844 5846 5847 5849 5850 5851 5852 5854 5855 5856 5858 5859 5859 5861 5862 5862 5863 5864 5864 5865 5866 5866 5866 5867 5867 5867 5867 5867 5867 5867 5867 5867 5867 5866 5866 5866
5829 5831 5833 5834 5836 5838 5839 5841 5842 5844 5845 5847 5848 5850 5851 5852 5854 5855 5856 5857 5858 5859 5860 5860 5861 5862 5862 5863 5863 5864 5865 5865 5865 5865 5865 5865 5865 5865 5865 5865 5865 5864 5864
5824 5827 5828 5830 5832 5834 5835 5837 5839 5840 5842 5843 5845 5846 5848 5849 5851 5852 5853 5854 5855 5856 5857 5857 5858 5859 5860 5860 5861 5861 5862 5862 5863 5863 5863 5863 5863 5863 5863 5863 5863 5862 5862
5819 5822 5824 5826 5827 5829 5831 5833 5835 5837 5838 5840 5841 5842 5844 5845 5847 5848 5849 5850 5851 5852 5853 5854 5855 5856 5856 5857 5858 5858 5859 5859 5860 5860 5860 5860 5860 5860 5860 5860 5860 5860 5860
5814 5816 5819 5821 5823 5825 5827 5829 5830 5832 5834 5836 5837 5838 5840 5841 5843 5844 5845 5846 5847 5848 5849 5850 5851 5852 5853 5853 5854 5855 5855 5856 5856 5857 5857 5857 5857 5857 5857 5857 5857 5857 5857
5808 5810 5813 5815 5818 5820 5822 5824 5826 5828 5829 5831 5833 5834 5836 5837 5838 5839 5841 5842 5843 5844 5845 5846 5847 5848 5849 5850 5850 5851 5852 5852 5853 5853 5854 5854 5854 5854 5854 5854 5854 5854 5854
5802 5804 5806 5809 5812 5814 5817 5819 5821 5822 5824 5826 5828 5829 5831 5832 5833 5835 5836 5837 5838 5840 5841 5842 5843 5844 5845 5846 5847 5847 5848 5848 5849 5849 5850 5850 5850 5850 5850 5850 5851 5851 5850
5795 5798 5800 5803 5805 5808 5811 5813 5815 5817 5819 5820 5822 5824 5825 5827 5828 5829 5831 5832 5833 5835 5836 5837 5838 5839 5840 5841 5842 5843 5843 5844 5844 5845 5845 5845 5846 5846 5846 5846 5847 5846 5846
5787 5791 5793 5796 5798 5801 5804 5806 5809 5811 5813 5815 5816 5818 5819 5821 5822 5823 5825 5826 5828 5829 5830 5832 5833 5834 5835 5836 5837 5838 5838 5839 5839 5840 5840 5841 5841 5841 5841 5842 5842 5842 5842
5780 5783 5786 5789 5791 5794 5797 5799 5801 5804 5806 5808 5810 5811 5813 5815 5816 5818 5819 5820 5822 5823 5824 5826 5827 5828 5829 5830 5831 5832 5833 5833 5833 5834 5834 5835 5835 5836 5836 5836 5836 5837 5837
5771 5774 5778 5781 5784 5786 5789 5792 5794 5797 5799 5801 5803 5805 5807 5808 5810 5811 5813 5814 5815 5817 5818 5819 5820 5822 5823 5824 5825 5826 5826 5827 5827 5828 5828 5829 5829 5830 5830 5830 5830 5831 5830
5763 5765 5769 5772 5775 5778 5781 5784 5786 5789 5791 5794 5796 5798 5800 5801 5803 5805 5806 5807 5808 5810 5811 5812 5814 5815 5816 5817 5818 5819 5819 5820 5821 5821 5822 5822 5823 5823 5824 5824 5824 5824 5824
5753 5756 5760 5763 5766 5769 5772 5775 5778 5781 5783 5786 5788 5790 5792 5794 5796 5797 5799 5800 5801 5803 5804 5805 5806 5808 5809 5809 5810 5811 5812 5813 5813 5814 5815 5815 5816 5816 5816 5817 5817 5817 5818
5744 5747 5751 5754 5757 5760 5764 5767 5770 5772 5775 5777 5780 5782 5784 5786 5788 5790 5791 5793 5794 5796 5797 5798 5799 5800 5801 5802 5803 5803 5804 5805 5806 5806 5807 5807 5808 5809 5809 5809 5809 5810 5810
5734 5738 5742 5745 5748 5751 5754 5758 5761 5764 5766 5769 5771 5774 5776 5778 5780 5782 5784 5785 5786 5788 5789 5790 5791 5792 5793 5794 5794 5795 5796 5797 5797 5798 5799 5799 5800 5800 5801 5801 5801 5802 5802
5725 5729 5732 5736 5739 5742 5745 5748 5751 5754 5757 5760 5762 5765 5767 5770 5772 5774 5775 5777 5778 5780 5781 5782 5783 5784 5785 5785 5786 5786 5787 5788 5788 5789 5790 5790 5791 5792 5792 5793 5793 5793 5793
5715 5719 5722 5726 5729 5732 5735 5738 5742 5745 5748 5751 5753 5756 5758 5761 5763 5765 5766 5768 5770 5771 5772 5773 5774 5775 5776 5776 5777 5777 5778 5779 5779 5780 5781 5781 5782 5782 5783 5784 5784 5785 5784
5705 5709 5712 5715 5719 5722 5725 5728 5732 5735 5738 5741 5744 5746 5749 5751 5753 5756 5757 5759 5760 5762 5763 5764 5765 5766 5767 5767 5768 5769 5769 5770 5770 5771 5771 5772 5772 5773 5774 5774 5775 5776 5776
5694 5698 5702 5705 5708 5711 5715 5718 5721 5725 5728 5731 5733 5736 5739 5742 5744 5746 5748 5749 5751 5753 5754 5755 5756 5757 5757 5758 5759 5760 5761 5761 5761 5762 5762 5762 5763 5763 5764 5765 5765 5766 5766
5683 5687 5691 5694 5697 5701 5704 5707 5711 5714 5717 5720 5723 5726 5729 5731 5733 5735 5737 5739 5741 5743 5744 5745 5747 5748 5748 5749 5750 5751 5751 5752 5752 5753 5753 5753 5753 5754 5754 5755 5755 5756 5756
5672 5675 5679 5683 5686 5690 5693 5696 5700 5703 5706 5709 5712 5715 5718 5721 5723 5725 5727 5729 5731 5733 5734 5736 5737 5738 5739 5740 5741 5742 5742 5743 5743 5743 5743 5744 5744 5744 5744 5745 5745 5746 5746